Location: Austin
(30.3000°N, 97.7500°W)
Time: 16:33:54
(UTC-06:00)

CZ-3 Stage 3 - Pass Details

Date: 10 January 2026
Orbit: 488 x 34915 km, 31.0° (Epoch: 20 January)

Event Time Altitude Azimuth Distance (km) Brightness Sun altitude
Rises 19:34:30 0° 273° (W) 6,963 9.7 -22.4°
Reaches altitude 10° 19:41:01 10° 275° (W) 3,904 8.1 -23.7°
Enters shadow 19:48:01 82° 327° (NNW) 666 3.1 -25.2°
